TimeEST,TemperatureF,Dew PointF,Humidity,Sea Level PressureIn,VisibilityMPH,Wind Direction,Wind SpeedMPH,Gust SpeedMPH,PrecipitationIn,Events,Conditions,WindDirDegrees,DateUTC
12:05 AM,32.0,23.0,69,30.18,10.0,West,13.8,-,N/A,,Clear,270,2013-01-04 05:05:00
12:50 AM,32.0,23.0,69,30.18,10.0,West,4.6,-,N/A,,Overcast,280,2013-01-04 05:50:00
1:10 AM,32.0,23.0,69,30.18,10.0,West,6.9,-,N/A,,Overcast,270,2013-01-04 06:10:00
1:30 AM,32.0,23.0,69,30.18,10.0,West,9.2,-,N/A,,Overcast,280,2013-01-04 06:30:00
1:55 AM,32.0,23.0,69,30.19,10.0,West,3.5,-,N/A,,Overcast,280,2013-01-04 06:55:00
2:15 AM,32.0,23.0,69,30.20,10.0,West,9.2,-,N/A,,Overcast,280,2013-01-04 07:15:00
2:35 AM,33.8,23.0,65,30.20,10.0,WNW,16.1,24.2,N/A,,Mostly Cloudy,290,2013-01-04 07:35:00
2:55 AM,32.0,23.0,69,30.21,10.0,WNW,5.8,-,N/A,,Mostly Cloudy,290,2013-01-04 07:55:00
3:20 AM,32.0,23.0,69,30.21,10.0,West,4.6,-,N/A,,Overcast,280,2013-01-04 08:20:00
3:40 AM,32.0,23.0,69,30.21,10.0,West,10.4,16.1,N/A,,Overcast,280,2013-01-04 08:40:00
4:00 AM,32.0,23.0,69,30.21,10.0,WNW,16.1,-,N/A,,Overcast,300,2013-01-04 09:00:00
4:20 AM,32.0,23.0,69,30.21,10.0,WNW,12.7,23.0,N/A,,Overcast,300,2013-01-04 09:20:00
4:45 AM,32.0,23.0,69,30.21,10.0,WNW,9.2,-,N/A,,Overcast,300,2013-01-04 09:45:00
5:05 AM,32.0,23.0,69,30.22,10.0,WNW,5.8,-,N/A,,Overcast,300,2013-01-04 10:05:00
6:47 AM,32.0,21.2,64,30.22,10.0,West,6.9,-,N/A,,Overcast,280,2013-01-04 11:47:00
7:45 AM,32.0,21.2,64,30.21,10.0,West,6.9,-,N/A,,Overcast,270,2013-01-04 12:45:00
8:55 AM,33.8,23.0,65,30.21,10.0,West,5.8,-,N/A,,Overcast,270,2013-01-04 13:55:00
9:50 AM,35.6,23.0,60,30.21,10.0,West,15.0,18.4,N/A,,Overcast,280,2013-01-04 14:50:00
10:50 AM,39.2,24.8,56,30.22,10.0,West,13.8,21.9,N/A,,Mostly Cloudy,280,2013-01-04 15:50:00
11:50 AM,41.0,24.8,53,30.19,10.0,West,18.4,25.3,N/A,,Mostly Cloudy,280,2013-01-04 16:50:00
12:50 PM,39.2,24.8,56,30.15,10.0,WNW,10.4,17.3,N/A,,Scattered Clouds,300,2013-01-04 17:50:00
1:50 PM,41.0,24.8,53,30.13,10.0,West,13.8,19.6,N/A,,Scattered Clouds,270,2013-01-04 18:50:00
3:46 PM,39.2,24.8,56,30.13,10.0,West,15.0,23.0,N/A,,Clear,260,2013-01-04 20:46:00
4:48 PM,37.4,23.0,56,30.14,10.0,WNW,9.2,24.2,N/A,,Clear,290,2013-01-04 21:48:00
5:50 PM,35.6,21.2,56,30.14,10.0,West,12.7,18.4,N/A,,Clear,270,2013-01-04 22:50:00
6:45 PM,35.6,21.2,56,30.16,10.0,West,9.2,-,N/A,,Clear,260,2013-01-04 23:45:00
7:45 PM,33.8,21.2,60,30.18,10.0,WSW,8.1,-,N/A,,Clear,250,2013-01-05 00:45:00
8:00 PM,32.0,23.0,69,30.18,10.0,SW,4.6,9.2,N/A,,Clear,230,2013-01-05 01:00:00
8:20 PM,32.0,23.0,69,30.18,10.0,WSW,5.8,-,N/A,,Clear,240,2013-01-05 01:20:00
8:40 PM,32.0,23.0,69,30.18,10.0,WSW,6.9,-,N/A,,Clear,240,2013-01-05 01:40:00
9:00 PM,32.0,23.0,69,30.18,10.0,WSW,8.1,-,N/A,,Clear,240,2013-01-05 02:00:00
9:25 PM,32.0,23.0,69,30.18,10.0,SW,4.6,-,N/A,,Clear,230,2013-01-05 02:25:00
9:45 PM,32.0,23.0,69,30.18,10.0,SSW,3.5,-,N/A,,Clear,200,2013-01-05 02:45:00
10:05 PM,32.0,23.0,69,30.19,10.0,SW,4.6,-,N/A,,Clear,230,2013-01-05 03:05:00
10:25 PM,32.0,23.0,69,30.18,10.0,SW,4.6,-,N/A,,Clear,220,2013-01-05 03:25:00
10:50 PM,32.0,23.0,69,30.19,10.0,SW,3.5,-,N/A,,Clear,230,2013-01-05 03:50:00
11:10 PM,32.0,23.0,69,30.18,10.0,Calm,Calm,-,N/A,,Clear,0,2013-01-05 04:10:00
11:30 PM,32.0,23.0,69,30.18,10.0,Calm,Calm,-,N/A,,Clear,0,2013-01-05 04:30:00
11:50 PM,32.0,23.0,69,30.18,10.0,SSE,3.5,-,N/A,,Clear,150,2013-01-05 04:50:00